User: anonymous   Login
Location: Bilsen
(53.7722°N, 9.8765°E)
Time: 06:43:35
(UTC+00:00)
Language:

CZ-2D R/B - Orbit

View from above orbital plane
View from above orbital plane
View from above satellite
View from above satellite

Ground track
Ground track

The orbit data is extracted from the following two-line orbital elements,

1 37932U 11068C   20152.26525087 +.00000001 +00000-0 +19897-4 0  9994
2 37932 098.6564 088.7861 0037523 153.0254 328.8844 14.22036170442601
Epoch (UTC): 31 May 2020 06:21:57
Eccentricity: 0.0037523
inclination: 98.6564°
perigee height: 791 km
apogee height: 845 km
right ascension of ascending node: 88.7861°
argument of perigee: 153.0254°
revolutions per day: 14.22036170
mean anomaly at epoch: 328.8844°
orbit number at epoch: 44260

The dashed part of the orbit path shows where the satellite is in the earth's shadow,  

DLR